Sigfox identifier Datetime Temperature Humidity SNR
00393883 2018-10-09 08:52:35 21.4 37 22.6
00393883 2018-10-09 07:43:43 21.5 37 22.4
00393883 2018-10-09 06:34:46 21.4 37 22.4
00393883 2018-10-09 05:25:51 21.5 37 22.2
00393883 2018-10-09 01:59:31 21.5 36 21.9
00393883 2018-10-09 00:50:58 21.4 36 21.9
00393883 2018-10-08 23:42:04 21.5 36 21.7
00393883 2018-10-08 22:33:07 21.5 36 21.3
00393883 2018-10-08 21:24:09 21.5 36 21
00393883 2018-10-08 20:15:11 21.5 36 20.9
00393883 2018-10-08 19:06:30 21.5 36 20.6
00393883 2018-10-08 17:58:00 21.5 36 20.5
00393883 2018-10-08 16:49:26 21.4 36 20.4
00393883 2018-10-08 15:40:46 21.4 36 18.6
00393883 2018-10-08 14:31:49 21.3 36 18.6
00393883 2018-10-08 13:22:49 21.3 36 18.7
00393883 2018-10-08 12:14:05 21.2 36 18.7
00393883 2018-10-08 11:05:09 21.1 36 18.9
00393883 2018-10-08 09:56:25 21 36 19.3
00393883 2018-10-08 08:47:31 21 36 19.6
00393883 2018-10-08 07:38:35 21 36 19.5
00393883 2018-10-08 06:29:41 21 37 19.6
00393883 2018-10-08 05:20:43 21.1 37 19.7
00393883 2018-10-08 04:11:46 21.1 37 19.4
00393883 2018-10-08 03:02:48 21.1 37 19.5
00393883 2018-10-08 01:53:56 21.1 37 19.3
00393883 2018-10-08 00:45:14 21.1 37 19.7
00393883 2018-10-07 23:36:21 21.2 37 19.6
00393883 2018-10-07 22:27:23 21.2 37 19.7
00393883 2018-10-07 21:18:23 21.2 37 20
00393883 2018-10-07 20:09:24 21.2 37 20.3
00393883 2018-10-07 19:00:27 21.2 37 20.4
00393883 2018-10-07 17:51:38 21.2 37 20.4
00393883 2018-10-07 16:43:06 21.2 37 20.6
00393883 2018-10-07 15:34:33 21.3 37 20.3
00393883 2018-10-07 14:26:03 21.3 37 20.3
00393883 2018-10-07 13:17:42 21.3 37 20.5
00393883 2018-10-07 12:09:09 21.2 37 20.3
00393883 2018-10-07 11:00:14 21.3 37 20.5
00393883 2018-10-07 09:51:23 21.3 38 20.8
00393883 2018-10-07 08:42:34 21.3 38 20.9
00393883 2018-10-07 07:33:39 21.3 38 21.1
00393883 2018-10-07 06:24:46 21.3 38 21.1
00393883 2018-10-07 05:15:51 21.3 38 21
00393883 2018-10-07 04:07:22 21.4 38 20.9
00393883 2018-10-07 02:58:58 21.4 38 20.9
00393883 2018-10-07 01:50:33 21.4 38 21.1
00393883 2018-10-07 00:42:04 21.4 38 21.1
00393883 2018-10-06 23:33:35 21.4 38 21.3
00393883 2018-10-06 22:25:00 21.4 38 21.4
00393883 2018-10-06 21:16:11 21.4 38 21.3
00393883 2018-10-06 20:07:24 21.4 38 21.3
00393883 2018-10-06 18:58:55 21.5 38 21.2
00393883 2018-10-06 17:50:30 21.4 38 21.3
00393883 2018-10-06 16:42:02 21.4 38 21.3
00393883 2018-10-06 15:33:22 21.5 38 21.2
00393883 2018-10-06 14:24:26 21.5 38 21.2
00393883 2018-10-06 13:15:34 21.5 38 21.4
00393883 2018-10-06 12:06:58 21.5 38 21.4
00393883 2018-10-06 10:58:25 21.5 38 21.5
00393883 2018-10-06 09:49:52 21.5 38 21.5
00393883 2018-10-06 08:41:20 21.5 38 21.5
00393883 2018-10-06 07:32:54 21.5 38 21.5
00393883 2018-10-06 06:24:01 21.5 38 21.5
00393883 2018-10-06 05:15:10 21.6 38 21.3
00393883 2018-10-06 04:06:26 21.7 38 21.4
00393883 2018-10-06 02:57:54 21.7 38 21.3
00393883 2018-10-06 01:49:21 21.7 38 21.3
00393883 2018-10-06 00:40:29 21.7 38 21.1
00393883 2018-10-05 23:31:27 21.7 38 21
00393883 2018-10-05 22:22:26 21.7 38 21.2
00393883 2018-10-05 21:13:29 21.7 38 20.8
00393883 2018-10-05 20:04:33 21.8 38 20.7
00393883 2018-10-05 18:55:36 21.8 38 20.6
00393883 2018-10-05 17:46:41 21.7 38 20.4
00393883 2018-10-05 16:37:43 21.7 38 20.5
00393883 2018-10-05 15:28:43 21.7 37 20
00393883 2018-10-05 14:19:46 21.7 37 20
00393883 2018-10-05 13:10:50 21.5 37 19.6
00393883 2018-10-05 12:01:54 21.4 37 19.4
00393883 2018-10-05 10:53:07 21.3 35 20.9
00393883 2018-10-05 09:44:33 21.2 34 20.8
00393883 2018-10-05 08:35:49 21 32 20.6
00393883 2018-10-05 07:27:02 21 30 20.4
00393883 2018-10-05 06:18:27 21 30 20.3
00393883 2018-10-05 05:09:55 21 30 20.3
00393883 2018-10-05 04:01:15 21 30 20.3
00393883 2018-10-05 02:52:16 21 30 20.2
00393883 2018-10-05 01:43:19 21.2 30 21.3
00393883 2018-10-05 00:34:24 21.3 30 21.3
00393883 2018-10-04 23:25:26 21.3 30 21.1
00393883 2018-10-04 22:16:32 21.3 30 21.8
00393883 2018-10-04 21:08:00 21.2 30 21.7
00393883 2018-10-04 19:59:28 21.2 30 21.7
00393883 2018-10-04 18:50:54 21.1 30 21.7
00393883 2018-10-04 17:42:20 21 30 21.5
00393883 2018-10-04 16:33:31 21 31 21.5
00393883 2018-10-04 15:25:04 21 30 22.5
00393883 2018-10-04 11:59:20 20.6 31 22.4
00393883 2018-10-04 10:50:43 20.5 29 22.4
00393883 2018-10-04 09:41:54 20.4 31 22.4
00393883 2018-10-04 07:24:01 20.3 33 23.3
00393883 2018-10-04 06:14:59 20.4 36 23.3
00393883 2018-10-04 05:05:58 20.4 37 23.3
00393883 2018-10-04 03:57:03 20.4 37 23.3
00393883 2018-10-04 02:48:05 20.4 38 22.3
00393883 2018-10-04 01:39:04 20.4 38 22.3
00393883 2018-10-04 00:30:03 20.4 39 22.3
00393883 2018-10-03 23:21:02 20.4 39 22.5
00393883 2018-10-03 22:12:25 20.6 40 22.6
00393883 2018-10-03 21:03:51 20.6 40 22.7
00393883 2018-10-03 19:55:02 20.5 41 22.9
00393883 2018-10-03 17:37:08 20.5 41 23
00393883 2018-10-03 16:28:26 20.6 44 22.1
00393883 2018-10-03 14:11:00 20.5 43 22.2
00393883 2018-10-03 13:02:28 20.4 42 22.4
00393883 2018-10-03 11:53:58 20.4 40 21.6
00393883 2018-10-03 10:45:31 20.4 41 21.8
00393883 2018-10-03 09:36:39 20.4 41 22.1
00393883 2018-10-03 08:27:39 20.2 38 22.4
00393883 2018-10-03 07:18:44 20.4 38 22.6
00393883 2018-10-03 06:09:47 20.4 40 23
00393883 2018-10-03 05:00:57 20.4 40 20.8
00393883 2018-10-03 03:52:08 20.4 40 21.2
00393883 2018-10-03 02:43:14 20.4 40 21.5
00393883 2018-10-03 01:34:22 20.4 41 21.9
00393883 2018-10-03 00:25:30 20.5 41 11.8
00393883 2018-10-02 23:16:52 20.6 41 10.8
00393883 2018-10-02 22:08:21 20.5 40 10.9
00393883 2018-10-02 20:59:54 20.5 40 11.7
00393883 2018-10-02 19:51:17 20.5 40 12.8
00393883 2018-10-02 17:34:09 20.6 41 6.8
00393883 2018-10-02 15:16:49 20.8 50 0